Regional Weather Roundup
Issued by NWS Green Bay, WI

Current Version | Previous Version | Text Only | Print | Product List | Glossary On
Versions: 1 2 3 4 5 6 7 8 9 10 11 12 13 14 15 16 17 18 19 20 21 22 23 24 25 26 27 28 29 30 31 32 33 34 35 36 37 38 39 40 41 42 43 44 45 46 47 48 49 50
240
ASUS43 KGRB 261200
RWRGRB

NORTH-CENTRAL AND NORTHEAST WISCONSIN REGIONAL WEATHER ROUNDUP
NATIONAL WEATHER SERVICE GREEN BAY WI
700 AM CDT FRI APR 26 2019

WIZ005-009-010>012-018-019-261300-
NORTH CENTRAL WISCONSIN

CITY           SKY/WX    TMP DP  RH WIND       PRES   REMARKS
IRONWOOD       NOT AVBL
MANITOWISH WTR CLOUDY    38  31  75 NW16      29.82R
ARBOR VITAE    NOT AVBL
EAGLE RIVER    FAIR      40  28  61 NW15G24   29.79R
LAND O LAKES   FAIR      40  29  65 NW8       29.81R
RHINELANDER    FAIR      43  27  53 NW9G21    29.80R
PHILLIPS       MOCLDY    39  31  72 NW14G21   29.85R
ANTIGO         NOT AVBL
TOMAHAWK       NOT AVBL
MERRILL        FAIR      42  26  52 N15G21    29.82R
$$

WIZ013-073-261300-
NORTHEAST WISCONSIN

CITY           SKY/WX    TMP DP  RH WIND       PRES   REMARKS
IRON MOUNTAIN  FAIR      45  29  53 NW14      29.72R
MARINETTE      PTSUNNY   43  37  79 NW8       29.72R
OCONTO         CLOUDY    46  35  66 NW9       29.72R
$$

WIZ017-030-035>037-045-261300-
CENTRAL WISCONSIN

CITY           SKY/WX    TMP DP  RH WIND       PRES   REMARKS
MEDFORD        FAIR      39  26  59 NW12G21   29.83R
WAUSAU         FAIR      43  25  49 NW12      29.79R
MOSINEE        SUNNY     43  27  52 NW10G16   29.82R
MARSHFIELD     FAIR      43  28  55 NW20G32   29.83R
WISC RAPIDS    FAIR      45  24  43 NW12      29.83R
STEVENS POINT  FAIR      43  25  49 NW9G16    29.81R
WAUPACA        FAIR      48  29  47 NW13      29.78R
SHAWANO        FAIR      44  39  82 NW9G17    29.75R
CLINTONVILLE   FAIR      46  28  48 NW13G22   29.76R
WAUTOMA        FAIR      46  28  49 NW10      29.81R
$$

WIZ038-039-048-051-261300-
FOX VALLEY

CITY           SKY/WX    TMP DP  RH WIND       PRES   REMARKS
NWS GREEN BAY  FAIR      47  36  65 NW14      29.73R
APPLETON       MOSUNNY   45  27  49 NW13      29.74R
OSHKOSH        FAIR      46  33  60 NW13      29.75R
FOND DU LAC    FAIR      45  35  68 NW14      29.76R
$$

WIZ022-050-052-261300-
EAST CENTRAL WISCONSIN

CITY           SKY/WX    TMP DP  RH WIND       PRES   REMARKS
EPHRAIM        NOT AVBL
WASHINGTON ISL PTSUNNY   42  37  83 N18G25    29.68R
STURGEON BAY   FAIR      44  39  82 NW14      29.71R
MANITOWOC      FAIR      48  38  68 NW16      29.70R
SHEBOYGAN      FAIR      49  41  74 NW13G23   29.71R
$$

LMZ563-521-522-541>543-261300-
LAKESHORE

STATION/POSITION TIME  TEMP    WIND        PRES    VSBY  WAVE
                       AIR SEA DIR/SP/G                  HT/PER
                 (UTC) (F)     (DEG/KT/KT) (MB)    (MI)  (FT/S)
SHEBOYGAN LKSHOR 1100   50     320/ 19/ 21 1005.2R
KEWAUNEE LKSHORE 1130   48     310/  8/ 14 1004.5R
NORTHPORT PIER   1140   44     300/  6/  9 1005.4R
SISTER BAY LKSHO 1127   39     300/  4/  5   N/A
MENOMINEE LKSHOR 1130   46 42  300/ 11/ 16 1005.3R
$$




USA.gov is the U.S. government's official web portal to all federal, state and local government web resources and services.